Location: Newark
(39.0083°N, 20.7336°E)
Time: 08:20:16
(UTC+00:00)

Nauka - Pass Details

Date: 03 October 2021
Orbit: 417 x 423 km, 51.6° (Epoch: 22 October)

Event Time Altitude Azimuth Distance (km) Brightness Sun altitude
Rises 18:21:20 0° 306° (NW) 2,364 ? -24.9°
Reaches altitude 10° 18:23:26 10° 303° (WNW) 1,498 ? -25.3°
Enters shadow 18:25:21 30° 292° (WNW) 769 ? -25.6°
